SCOUT B DEB, 3392

Orbit data source: Space-Track

SCOUT B DEB, 3392 is space debris in LEO originally from a launch on Thu, 08 Aug 1968 UTC launched from the Air Force Western Test Range (AFWTR). Debris objects in space refer to the collection of defunct objects orbiting the Earth. Examples of debris include non-operational satellites, rocket bodies, and fragments generated from explosions, collisions, or faulty payload assembly.

Loading next visibility...
Identifier
3392, 1968-066H
Orbit
LEO
Last TLE update
2 days ago
Origin
Manufacturer
Unknown
Mission
Spacecraft
Bus & Motor
Unknown
Mass
Unknown
Launch date (UTC)
1968-08-08 (57 years ago)
Launch vehicle
Unknown
Launch site
Air Force Western Test Range (AFWTR)
Object type
Payload
Rocket body
Debris
Shape & HBR
Unknown
Radar Cross Section
Small (<0.1 m²)

Expand to show TLE details & history

TLE from 2 days ago
0 SCOUT B DEB
1 03392U 68066H   25127.42724594  .00012095  00000-0  39609-2 0  9993
2 03392  80.6592 285.4822 0366048 252.0804 104.0142 14.06531751676079
Epoch: 2025-05-07T10:15Z
Definitive object data (Epoch: 2025-05-07T10:15:14.049Z)
Latitude
Longitude
-93.83859°
Altitude
947.432 km
Speed
7.341 km/s
True Right ascension
19h 01m 55s
True Declination
0° 00' 00"
Sunlit
Object was in daylight at TLE epoch
Visualization TLE readout
Latitude
-30.20676°
Longitude
89.74273°
Altitude
666.121 km
Speed
7.634 km/s
Apparent Right ascension
05h 01m 17s
Apparent Declination
-41° 25' 36"
Sunlit
Object is in daylight
Visualization observer readout
Local Sidereal Time
14:06:30
Azimuth
252.873° W
Elevation
-57.18°
Doppler factor
1
Orbital elements
Apogee altitude
1,133.727 km
Perigee altitude
603.206 km
Semi-major axis
7,246.603 km
Eccentricity
0.0366048
Inclination
80.6592°
RAAN
285.4822°
Arg. of periapsis
252.0804°
True anomaly
108.03603°
Mean anomaly
104.0142°
Eccentric anomaly
106.02995°
Mean motion
3.51837 °/min
BSTAR
0.0039609
Orbital period
102.32 mins
Loading maneuver chart data...
Loading SW <> Apogee altitude chart data...
Loading historical data...
Loading historical data...
Loading historical data...
Loading historical data...
Loading historical data...
Loading historical data...
Loading historical data...

SCOUT B DEB Visibility forecast

Observer location: undefined°, undefined°

Span
Click to sort rows by Start time (UTC) header in descending order
Start Az.
Max El. time (UTC)
Max El. Az.
Max El.
End time (UTC)
End Az.
11 mins2025-05-09 10:09:45.354Z147.166° SSE2025-05-09 10:15:45.354Z80.975° E28.15°2025-05-09 10:20:45.354Z31.645° NE
11 mins2025-05-09 11:53:45.354Z222.22° SW2025-05-09 11:58:45.354Z292.466° WNW35.153°2025-05-09 12:04:45.354Z356.503° N
8 mins2025-05-09 20:54:45.354Z20.39° NNE2025-05-09 20:58:45.354Z66.984° ENE23.225°2025-05-09 21:02:45.354Z116.186° SE
10 mins2025-05-09 22:37:45.354Z334.585° NNW2025-05-09 22:42:45.354Z260.239° W36.095°2025-05-09 22:47:45.354Z196.112° SSW
|